Pagina principale
METAR-TAF:

METAR-TAF

Aeroporti :

Hartness State Airport

Springfield, Vermont, Stati Uniti

latitudine: 43-20-33N, longitudine: 072-31-18W, altezza: 175 m

Osservazione

Il bollettino è stato emesso 21 minuti fa, alle 08:03 UTC
Vento calmo
Temperature 19°C
Umidità 100%
Pressione 1014 hPa
Visibilità: 8.0 km
Nuvoloso ad un'altezza di 200 ft
foschia

METAR: KVSF 160803Z AUTO 00000KT 5SM BR BKN002 19/19 A2995 RMK AO2 T01890189

Ora: 04:24 (08:24 UTC)


TAF: mancante

Osservazioni e previsioni meteorologiche di più di 4000 aeroporti (messaggi METAR e TAF).

Le stazioni disponibili sono rappresentate dai dischi gialli e rossi sulla carta.

Puntare il mouse per vedere il nome della stazione.

Clicca sopra per visualizzare le osservazioni e previsioni meteorologiche.

Per cambiare la mappa : fare clic sui pulsanti verdi con una croce nera per ingrandire, il pulsante verde con un trattino per diminuire, o sulla freccia verde per le mappe adiacenti.


METAR-TAF: